This is the latest recevied weather packets stored in our database for station/object DL1ONI-13. If no packets are shown the sender has not sent any weather packets the latest 10 day(s).
| Time | Temp. | Humidity | Pressure | Rain* | Wind** | Luminosity | Snow |
|---|---|---|---|---|---|---|---|
| 1777642239 | 20° C | 25% | 1030.3 hPa | 0 mm | - | - | - |
| 1777638020 | 19.44° C | 25% | 1031 hPa | 0 mm | - | - | - |
| 1777636840 | 18.89° C | 25% | 1031 hPa | 0 mm | - | - | - |
| 1777632622 | 17.78° C | 25% | 1031.7 hPa | 0 mm | - | - | - |
| 1777632022 | 17.22° C | 25% | 1031.7 hPa | 0 mm | - | - | - |
| 1777627224 | 15° C | 25% | 1032 hPa | 0 mm | - | - | - |
| 1777615825 | 9.44° C | 25% | 1030.4 hPa | 0 mm | - | - | - |
| 1777614617 | 10° C | 25% | 1030.5 hPa | 0 mm | - | - | - |
| 1777613417 | 15° C | 25% | 1030.9 hPa | 0 mm | - | - | - |
| 1777612216 | 9.44° C | 26% | 1030.2 hPa | 0 mm | - | - | - |
| 1777610417 | 5° C | 25% | 1029.7 hPa | 0 mm | - | - | - |
| 1777609818 | 4.44° C | 25% | 1029.4 hPa | 0 mm | - | - | - |
| 1777608618 | 4.44° C | 25% | 1029.1 hPa | 0 mm | - | - | - |
| 1777604420 | 5° C | 25% | 1030.5 hPa | 0 mm | - | - | - |
| 1777602021 | 4.44° C | 25% | 1030.7 hPa | 0 mm | - | - | - |
| 1777598445 | 5.56° C | 25% | 1030.7 hPa | 0 mm | - | - | - |
| 1777590020 | 6.67° C | 25% | 1030.6 hPa | 0 mm | - | - | - |
| 1777587024 | 7.78° C | 25% | 1030.9 hPa | 0 mm | - | - | - |
| 1777579217 | 10° C | 25% | 1029.5 hPa | 0 mm | - | - | - |
| 1777576220 | 11.67° C | 25% | 1029.3 hPa | 0 mm | - | - | - |
| 1777573841 | 12.78° C | 25% | 1028.6 hPa | 0 mm | - | - | - |
| 1777573220 | 13.33° C | 25% | 1028.6 hPa | 0 mm | - | - | - |
| 1777571421 | 15° C | 25% | 1029 hPa | 0 mm | - | - | - |
| 1777570821 | 15° C | 25% | 1029 hPa | 0 mm | - | - | - |
| 1777569643 | 15.56° C | 25% | 1028.5 hPa | 0 mm | - | - | - |
* Rain latest hour (hover to see other rain measurements)
** Current wind speed in m/s (hover to see current wind gust speed)